Home > Weather > Saint-Pierre > Past weeks

Flag for Reunion (French) Weather for the Past 2 Weeks in Saint-Pierre, Reunion (French)

Now
81 °F

Mostly cloudy.


Feels Like: 87 °F
Forecast: 80 / 87 °F
Wind: 7 mph from Southeast

Location: Saint Airport-Pierre

Current Time: Feb 8, 2016 at 11:06:30 PM

Latest Report: Feb 8, 2016 at 10:30 PM


Visibility: 6 mi

Pressure: 29.71 "Hg

Humidity: 89%

Dew point: 77 °F

Location of Saint-PierreLocation

Historic Weather in Saint-Pierre — Graph

°F

Saint-Pierre Temperature Yesterday

Maximum temperature yesterday: 88 °F (at 4:30 PM)
Minimum temperature yesterday: 77 °F (at 5:00 AM)
Average temperature yesterday: 81 °F

High & Low Weather Summary for the Past Weeks

 TemperatureHumidityPressure
High91 °F (Feb 6, 12:30 PM)94% (Jan 27, 2:30 AM)29.95 "Hg (Jan 27, 2:30 AM)
Low73 °F (Jan 28, 5:00 AM)43% (Feb 3, 12:00 PM)29.62 "Hg (Feb 8, 4:00 PM)
Average82 °F68%29.85 "Hg
* Reported Jan 24 9:00 PM — Feb 8 9:30 PM, Saint-Pierre, Weather by CustomWeather, © 2016

Note: Actual official high and low records may vary slightly from our data, if they occured in-between our weather recording intervals... More about our weather records

Advertising

Saint-Pierre Weather History for the Previous 24 Hours

 ConditionsComfort  
Time TempWeatherWind HumidityBarometerVisibility
9:30 PM
Mon, Feb 8
81 °FPartly cloudy.6 mph89%29.68 "HgN/A
9:00 PM81 °FPassing clouds.10 mph89%29.68 "HgN/A
8:30 PM82 °FPartly cloudy.12 mph84%29.71 "HgN/A
8:00 PM82 °FLight rain. Mostly cloudy.5 mph84%29.68 "HgN/A
7:30 PM82 °FMostly cloudy.29 mph84%29.65 "HgN/A
7:00 PM84 °FPassing clouds.20 mph74%29.62 "HgN/A
6:30 PM84 °FPassing clouds.18 mph74%29.62 "HgN/A
6:00 PM86 °FPassing clouds.13 mph70%29.65 "HgN/A
5:30 PM88 °FPassing clouds.20 mph66%29.62 "HgN/A
5:00 PM86 °FBroken clouds.24 mph70%29.62 "HgN/A
4:30 PM88 °FPassing clouds.23 mph66%29.62 "HgN/A
4:00 PM90 °FPassing clouds.13 mph63%29.62 "HgN/A
3:30 PM86 °FWarm.23 mph70%29.65 "HgN/A
3:00 PM86 °FPartly sunny.18 mph75%29.65 "HgN/A
2:30 PM84 °FBroken clouds.33 mph79%29.65 "HgN/A
2:00 PM86 °FWarm.18 mph75%29.68 "HgN/A
1:30 PM88 °FScattered clouds.18 mph75%29.68 "HgN/A
1:00 PM84 °FBroken clouds.8 mph79%29.71 "HgN/A
12:30 PM86 °FRain. Broken clouds.8 mph70%29.74 "Hg6 mi
12:00 PM86 °FPartly sunny.20 mph79%29.74 "HgN/A
11:30 AM86 °FPartly sunny.20 mph79%29.74 "HgN/A
11:00 AM86 °FPartly sunny.26 mph70%29.74 "HgN/A
10:30 AM88 °FPassing clouds.21 mph70%29.71 "HgN/A
10:00 AM88 °FScattered clouds.14 mph70%29.74 "HgN/A
9:30 AM86 °FScattered clouds.5 mph70%29.74 "HgN/A
9:00 AM84 °FScattered clouds.14 mph79%29.74 "HgN/A
8:30 AM84 °FWarm.3 mph79%29.77 "HgN/A
8:00 AM82 °FScattered clouds.5 mph84%29.74 "HgN/A
7:30 AM81 °FPartly sunny.2 mph89%29.77 "HgN/A
7:00 AM79 °FBroken clouds.No wind89%29.74 "HgN/A
6:30 AM79 °FScattered clouds.7 mph89%29.74 "Hg6 mi
6:00 AM79 °FBroken clouds.6 mph89%29.74 "HgN/A
5:00 AM79 °FPassing clouds.3 mph89%29.74 "HgN/A
4:30 AM79 °FWarm.5 mph89%29.71 "HgN/A
4:00 AM79 °FWarm.5 mph89%29.71 "HgN/A
3:30 AM79 °FPassing clouds.6 mph89%29.71 "HgN/A
3:00 AM79 °FPartly cloudy.3 mph89%29.71 "HgN/A
2:30 AM79 °FPartly cloudy.7 mph89%29.74 "HgN/A
2:00 AM79 °FPassing clouds.6 mph89%29.77 "HgN/A
1:30 AM81 °FWarm.2 mph84%29.77 "HgN/A
1:00 AM81 °FPassing clouds.6 mph84%29.80 "HgN/A
12:30 AM81 °FRain. Partly cloudy.5 mph84%29.80 "HgN/A
12:00 AM81 °FWarm.3 mph84%29.80 "HgN/A
11:30 PM
Sun, Feb 7
81 °FWarm.5 mph84%29.80 "HgN/A
11:00 PM81 °FPassing clouds.2 mph84%29.80 "HgN/A
Weather by CustomWeather, © 2016

See weather overviewHow to use our weather pages